Simultaneous Nadir Overpasses (SNOs) Predictions

Prediction of SNOs between GOES-15 and NOAA-20 Satellite Orbit:

Table of predicted SNOs for the next 14.0 days since TLE Epoch: 10/17/2020
Index Date Time (GOES-15) GOES-15 Lat,Lon NOAA-20 Lat,Lon Distance(km) Time Diff (sec)
1 10/17/2020 22:16:54 0.13,-128.36 -0.85,-132.62 486.54 80
2 10/18/2020 21:55:31 0.14,-128.35 0.20,-128.10 28.03 80
3 10/21/2020 09:58:36 -0.13,-128.32 -0.04,-128.85 59.50 80
4 10/22/2020 09:40:28 -0.14,-128.31 -1.03,-124.32 454.82 43
5 10/23/2020 22:04:28 0.13,-128.27 -0.15,-129.62 153.90 80
6 10/24/2020 21:43:04 0.14,-128.25 0.83,-125.09 359.99 80
7 10/26/2020 10:07:32 -0.13,-128.24 0.37,-130.36 242.63 80
8 10/27/2020 09:46:09 -0.14,-128.22 -0.68,-125.84 271.53 80
9 10/28/2020 22:10:45 0.13,-128.19 -0.56,-131.14 336.79 80
10 10/29/2020 21:49:22 0.14,-128.16 0.49,-126.61 176.94 80
